Glens Falls, NY

5:54 AM EDT on May 25, 2017 (GMT -0400)
Bennett Memorial

Weather History for KGFL - October, 2012

Change the Weather History Date:

Tuesday, October 30, 2012

  Actual Average Record
Temperature  
Mean Temperature 58 °F 42 °F  
Max Temperature 67 °F 53 °F 72 °F (1950)
Min Temperature 49 °F 31 °F 19 °F (1966)
Degree Days  
Heating Degree Days 7 23  
Month to date heating degree days 406 547  
Since 1 July heating degree days 635 832  
Cooling Degree Days 0 0  
Month to date cooling degree days 0 0  
Year to date cooling degree days 533 351  
Growing Degree Days 10 (Base 50)    
Moisture  
Dew Point 49 °F    
Average Humidity 66    
Maximum Humidity 90    
Minimum Humidity 42    
Precipitation  
Precipitation 0.06 in 0.11 in 1.29 in (1955)
Month to date precipitation 4.62 3.40  
Year to date precipitation 30.65 32.59  
Sea Level Pressure  
Sea Level Pressure 29.40 in    
Wind  
Wind Speed 9 mph (ESE)    
Max Wind Speed 28 mph    
Max Gust Speed 40 mph    
Visibility 10 miles    
Events Rain    
T = Trace of Precipitation, MM = Missing Value Source: NWS Daily Summary

Daily Weather History Graph

Daily Weather History Graph

Search for Another Location

Airport or City:

Trip Planner

Search our weather history database for the weather conditions in past years. The results will help you decide how hot, cold, wet, or windy it might be!

Date:

Astronomy

Oct. 30, 2012 Rise Set
Actual Time 7:27 AM EDT 5:47 PM EDT
Civil Twilight 6:58 AM EDT 6:17 PM EDT
Nautical Twilight 6:24 AM EDT 6:51 PM EDT
Astronomical Twilight 5:51 AM EDT 7:24 PM EDT
Moon 6:13 PM EDT (10/30) 8:13 AM EDT (10/30)
Length of Visible Light 11h 19m
Length of Day
10h 20m
Full, 99% of the Moon is Illuminated
Oct 30
Full
Nov 6
Last Quarter
Nov 13
New
Nov 20
First Quarter
Nov 28
Full

Hourly Weather History & Observations

Time (EDT) Temp. Dew Point Humidity Pressure Visibility Wind Dir Wind Speed Gust Speed Precip Events Conditions
12:53 AM 60.1 °F 57.9 °F 93% 29.21 in 10.0 mi NE 16.1 mph 20.7 mph 0.01 in Rain Light Rain
1:53 AM 60.1 °F 57.9 °F 93% 29.23 in 10.0 mi ENE 11.5 mph - 0.01 in   Overcast
3:53 AM 61.0 °F 53.1 °F 75% 29.26 in 10.0 mi East 10.4 mph 18.4 mph N/A   Mostly Cloudy
4:53 AM 61.0 °F 53.1 °F 75% 29.28 in 10.0 mi ESE 13.8 mph 20.7 mph N/A   Overcast
5:53 AM 57.9 °F 53.1 °F 84% 29.31 in 10.0 mi ESE 8.1 mph - 0.03 in Rain Light Rain
6:53 AM 55.9 °F 50.0 °F 80% 29.34 in 10.0 mi East 4.6 mph - 0.00 in   Partly Cloudy
7:53 AM 55.9 °F 50.0 °F 80% 29.37 in 10.0 mi Calm Calm - N/A   Mostly Cloudy
8:53 AM 55.9 °F 52.0 °F 87% 29.40 in 10.0 mi Calm Calm - 0.02 in   Overcast
9:53 AM 60.1 °F 51.1 °F 72% 29.43 in 10.0 mi ESE 6.9 mph - N/A   Mostly Cloudy
10:53 AM 64.0 °F 46.0 °F 52% 29.42 in 10.0 mi SE 17.3 mph 26.5 mph N/A   Partly Cloudy
11:53 AM 66.0 °F 45.0 °F 47% 29.42 in 10.0 mi SE 16.1 mph 27.6 mph N/A   Mostly Cloudy
12:53 PM 64.9 °F 46.0 °F 50% 29.43 in 10.0 mi SE 15.0 mph 27.6 mph N/A   Overcast
1:53 PM 64.9 °F 45.0 °F 48% 29.43 in 10.0 mi SE 21.9 mph 31.1 mph N/A   Mostly Cloudy
2:53 PM 64.9 °F 44.1 °F 47% 29.43 in 10.0 mi SSE 24.2 mph 35.7 mph N/A   Mostly Cloudy
3:53 PM 66.0 °F 43.0 °F 43% 29.44 in 10.0 mi SE 18.4 mph 31.1 mph N/A   Mostly Cloudy
4:53 PM 64.0 °F 45.0 °F 50% 29.45 in 10.0 mi SSE 9.2 mph 19.6 mph N/A   Overcast
5:53 PM 63.0 °F 45.0 °F 52% 29.46 in 10.0 mi SSE 4.6 mph - N/A   Overcast
6:53 PM 63.0 °F 45.0 °F 52% 29.48 in 10.0 mi SE 10.4 mph - N/A   Overcast
7:53 PM 61.0 °F 46.9 °F 60% 29.48 in 10.0 mi ESE 6.9 mph - N/A   Overcast
8:53 PM 60.1 °F 48.0 °F 64% 29.48 in 10.0 mi SE 6.9 mph - N/A   Scattered Clouds
9:53 PM 60.1 °F 48.0 °F 64% 29.49 in 10.0 mi SSE 8.1 mph - N/A   Overcast
10:53 PM 55.0 °F 48.9 °F 80% 29.47 in 10.0 mi Calm Calm - N/A   Scattered Clouds
11:53 PM 52.0 °F 48.0 °F 86% 29.46 in 10.0 mi North 3.5 mph - N/A   Partly Cloudy